• In Deutschland
  • Länderverzeichnis
  • Für 7 Tage
  • Wassertemperatur
  • Satellitenkarten
  • Wetterkarte
  • Widgets
  • user-avatar
    Anmelden

    Stündliche Wetter Mykhailopil'

    Heute, 21 Mai, Montag

    Zeit Temperatur Niederschläge Wind Luftdruck Luftfeuchtigkeit
    00:00 +13°C° 0 mm 4 m/S 759 mmHg 82%
    01:00 +13°C° 0 mm 4 m/S 759 mmHg 82%
    02:00 +13°C° 0 mm 2 m/S 759 mmHg 86%
    03:00 +11°C° 0 mm 3 m/S 760 mmHg 86%
    04:00 +11°C° 0 mm 3 m/S 760 mmHg 85%
    05:00 +11°C° 0 mm 3 m/S 760 mmHg 84%
    06:00 +12°C° 0 mm 4 m/S 760 mmHg 76%
    07:00 +14°C° 0 mm 4 m/S 760 mmHg 67%
    08:00 +16°C° 0 mm 5 m/S 761 mmHg 59%
    09:00 +17°C° 0 mm 5 m/S 761 mmHg 54%
    10:00 +19°C° 0 mm 5 m/S 761 mmHg 50%
    11:00 +20°C° 0 mm 5 m/S 761 mmHg 46%
    12:00 +21°C° 0 mm 4 m/S 760 mmHg 44%
    13:00 +22°C° 0 mm 4 m/S 760 mmHg 42%
    14:00 +22°C° 0 mm 4 m/S 760 mmHg 41%
    15:00 +22°C° 0 mm 4 m/S 760 mmHg 42%
    16:00 +22°C° 0 mm 3 m/S 760 mmHg 43%
    17:00 +22°C° 0 mm 3 m/S 760 mmHg 44%
    18:00 +20°C° 0 mm 3 m/S 760 mmHg 50%
    19:00 +19°C° 0 mm 3 m/S 760 mmHg 56%
    20:00 +17°C° 0 mm 3 m/S 760 mmHg 62%
    21:00 +16°C° 0 mm 3 m/S 760 mmHg 65%
    22:00 +14°C° 0 mm 3 m/S 760 mmHg 69%
    23:00 +15°C° 0 mm 2 m/S 760 mmHg 72%

    Morgen, 22 Mai, Dienstag

    Zeit Temperatur Niederschläge Wind Luftdruck Luftfeuchtigkeit
    00:00 +14°C° 0 mm 2 m/S 760 mmHg 74%
    01:00 +14°C° 0 mm 2 m/S 761 mmHg 76%
    02:00 +13°C° 0 mm 2 m/S 761 mmHg 78%
    03:00 +13°C° 0 mm 2 m/S 761 mmHg 79%
    04:00 +13°C° 0 mm 2 m/S 761 mmHg 80%
    05:00 +13°C° 0 mm 2 m/S 761 mmHg 82%
    06:00 +14°C° 0 mm 2 m/S 761 mmHg 75%
    07:00 +16°C° 0 mm 3 m/S 761 mmHg 67%
    08:00 +18°C° 0 mm 3 m/S 761 mmHg 60%
    09:00 +20°C° 0 mm 2 m/S 761 mmHg 55%
    10:00 +21°C° 0 mm 2 m/S 761 mmHg 49%
    11:00 +23°C° 0 mm 2 m/S 762 mmHg 44%
    12:00 +24°C° 0 mm 1 m/S 761 mmHg 41%
    13:00 +25°C° 0 mm 1 m/S 761 mmHg 39%
    14:00 +26°C° 0 mm 1 m/S 761 mmHg 36%
    15:00 +26°C° 0 mm 1 m/S 761 mmHg 36%
    16:00 +26°C° 0 mm 1 m/S 761 mmHg 36%
    17:00 +25°C° 0 mm 1 m/S 761 mmHg 36%
    18:00 +24°C° 0 mm 1 m/S 761 mmHg 41%
    19:00 +22°C° 0 mm 1 m/S 761 mmHg 45%
    20:00 +20°C° 0 mm 1 m/S 761 mmHg 50%
    21:00 +20°C° 0 mm 1 m/S 761 mmHg 52%
    22:00 +19°C° 0 mm 1 m/S 761 mmHg 54%
    23:00 +18°C° 0 mm 1 m/S 761 mmHg 57%

    übermorgen, 23 Mai, Mittwoch

    Zeit Temperatur Niederschläge Wind Luftdruck Luftfeuchtigkeit
    00:00 +18°C° 0 mm 1 m/S 761 mmHg 58%
    01:00 +16°C° 0 mm 1 m/S 761 mmHg 60%
    02:00 +16°C° 0 mm 1 m/S 761 mmHg 61%
    03:00 +16°C° 0 mm 2 m/S 761 mmHg 64%
    04:00 +16°C° 0 mm 2 m/S 761 mmHg 66%
    05:00 +15°C° 0 mm 2 m/S 761 mmHg 68%
    06:00 +18°C° 0 mm 2 m/S 761 mmHg 63%
    07:00 +20°C° 0 mm 2 m/S 761 mmHg 58%
    08:00 +23°C° 0 mm 2 m/S 761 mmHg 53%
    09:00 +24°C° 0 mm 2 m/S 761 mmHg 48%
    10:00 +26°C° 0 mm 2 m/S 761 mmHg 43%
    11:00 +27°C° 0 mm 2 m/S 761 mmHg 38%
    12:00 +28°C° 0 mm 2 m/S 761 mmHg 36%
    13:00 +28°C° 0 mm 2 m/S 760 mmHg 35%
    14:00 +29°C° 0 mm 2 m/S 760 mmHg 33%
    15:00 +29°C° 0 mm 2 m/S 760 mmHg 34%
    16:00 +29°C° 0 mm 2 m/S 759 mmHg 35%
    17:00 +29°C° 0 mm 2 m/S 759 mmHg 35%
    18:00 +27°C° 0 mm 2 m/S 759 mmHg 41%
    19:00 +25°C° 0 mm 2 m/S 759 mmHg 46%
    20:00 +23°C° 0 mm 2 m/S 759 mmHg 52%
    21:00 +21°C° 0 mm 2 m/S 759 mmHg 55%
    22:00 +20°C° 0 mm 2 m/S 759 mmHg 58%
    23:00 +19°C° 0 mm 3 m/S 759 mmHg 61%

    24 Mai, Donnerstag

    Zeit Temperatur Niederschläge Wind Luftdruck Luftfeuchtigkeit
    00:00 +19°C° 0 mm 3 m/S 759 mmHg 64%
    01:00 +18°C° 0 mm 3 m/S 758 mmHg 67%
    02:00 +18°C° 0 mm 3 m/S 758 mmHg 70%
    03:00 +17°C° 0 mm 3 m/S 758 mmHg 71%
    04:00 +17°C° 0 mm 3 m/S 758 mmHg 73%
    05:00 +17°C° 0 mm 3 m/S 758 mmHg 74%
    06:00 +19°C° 0 mm 3 m/S 758 mmHg 70%
    07:00 +21°C° 0 mm 4 m/S 758 mmHg 65%
    08:00 +23°C° 0 mm 4 m/S 758 mmHg 61%
    09:00 +25°C° 0 mm 4 m/S 757 mmHg 55%
    10:00 +27°C° 0 mm 4 m/S 757 mmHg 49%
    11:00 +28°C° 0 mm 5 m/S 757 mmHg 43%
    12:00 +28°C° 0 mm 5 m/S 756 mmHg 43%
    13:00 +29°C° 0 mm 5 m/S 756 mmHg 42%
    14:00 +29°C° 0 mm 5 m/S 755 mmHg 42%
    15:00 +29°C° 0 mm 5 m/S 755 mmHg 45%
    16:00 +28°C° 0 mm 5 m/S 755 mmHg 48%
    17:00 +28°C° 0 mm 5 m/S 755 mmHg 52%
    18:00 +26°C° 0 mm 5 m/S 755 mmHg 58%
    19:00 +25°C° 0 mm 5 m/S 754 mmHg 65%
    20:00 +22°C° 0 mm 4 m/S 754 mmHg 72%
    21:00 +22°C° 0 mm 4 m/S 754 mmHg 74%
    22:00 +21°C° 0 mm 5 m/S 754 mmHg 77%
    23:00 +21°C° 0 mm 5 m/S 754 mmHg 79%

    25 Mai, Freitag

    Zeit Temperatur Niederschläge Wind Luftdruck Luftfeuchtigkeit
    00:00 +20°C° 0 mm 5 m/S 754 mmHg 80%
    01:00 +20°C° 0 mm 5 m/S 754 mmHg 81%
    02:00 +19°C° 0 mm 5 m/S 754 mmHg 82%
    03:00 +19°C° 0,2 mm 5 m/S 754 mmHg 81%
    04:00 +19°C° 0,2 mm 6 m/S 754 mmHg 80%
    05:00 +19°C° 0,2 mm 6 m/S 754 mmHg 79%
    06:00 +20°C° 0,3 mm 6 m/S 754 mmHg 77%
    07:00 +20°C° 0,3 mm 6 m/S 754 mmHg 74%
    08:00 +21°C° 0,3 mm 6 m/S 754 mmHg 71%
    09:00 +22°C° 0,2 mm 6 m/S 755 mmHg 65%
    10:00 +23°C° 0,2 mm 6 m/S 755 mmHg 59%
    11:00 +24°C° 0,2 mm 6 m/S 755 mmHg 53%
    12:00 +26°C° 0 mm 7 m/S 755 mmHg 51%
    13:00 +27°C° 0 mm 7 m/S 755 mmHg 49%
    14:00 +27°C° 0 mm 7 m/S 755 mmHg 47%
    15:00 +27°C° 0 mm 7 m/S 755 mmHg 52%
    16:00 +26°C° 0 mm 7 m/S 755 mmHg 56%
    17:00 +24°C° 0 mm 6 m/S 755 mmHg 60%
    18:00 +23°C° 0,3 mm 7 m/S 755 mmHg 64%
    19:00 +23°C° 0,3 mm 7 m/S 755 mmHg 68%
    20:00 +22°C° 0,3 mm 7 m/S 756 mmHg 71%
    21:00 +21°C° 0,2 mm 7 m/S 756 mmHg 74%
    22:00 +20°C° 0,2 mm 8 m/S 756 mmHg 76%
    23:00 +18°C° 0,2 mm 8 m/S 757 mmHg 78%

    26 Mai, Samstag

    Zeit Temperatur Niederschläge Wind Luftdruck Luftfeuchtigkeit
    00:00 +17°C° 0 mm 8 m/S 757 mmHg 78%
    01:00 +16°C° 0 mm 8 m/S 757 mmHg 78%
    02:00 +16°C° 0 mm 8 m/S 758 mmHg 78%
    03:00 +15°C° 0 mm 8 m/S 758 mmHg 76%
    04:00 +13°C° 0 mm 8 m/S 759 mmHg 75%
    05:00 +12°C° 0 mm 8 m/S 759 mmHg 73%
    06:00 +12°C° 0 mm 8 m/S 760 mmHg 67%
    07:00 +13°C° 0 mm 9 m/S 761 mmHg 61%
    08:00 +15°C° 0 mm 9 m/S 761 mmHg 55%
    09:00 +16°C° 0 mm 9 m/S 762 mmHg 51%
    10:00 +17°C° 0 mm 9 m/S 762 mmHg 46%
    11:00 +18°C° 0 mm 9 m/S 762 mmHg 42%
    12:00 +18°C° 0 mm 9 m/S 762 mmHg 41%
    13:00 +19°C° 0 mm 9 m/S 763 mmHg 40%
    14:00 +20°C° 0 mm 8 m/S 763 mmHg 40%
    15:00 +20°C° 0 mm 8 m/S 763 mmHg 41%
    16:00 +18°C° 0 mm 8 m/S 763 mmHg 43%
    17:00 +18°C° 0 mm 8 m/S 763 mmHg 44%
    18:00 +17°C° 0 mm 7 m/S 764 mmHg 49%
    19:00 +15°C° 0 mm 6 m/S 764 mmHg 53%
    20:00 +14°C° 0 mm 5 m/S 765 mmHg 58%
    21:00 +13°C° 0 mm 5 m/S 765 mmHg 60%
    22:00 +12°C° 0 mm 4 m/S 765 mmHg 63%
    23:00 +11°C° 0 mm 4 m/S 766 mmHg 66%
    Mehr zeigen